Regional Weather Roundup
Issued by NWS

Home | Current Version | Previous Version | Graphics & Text | Print | Product List | Glossary On
Versions: 1 2 3 4 5 6 7 8 9 10 11 12 13 14 15 16 17 18 19 20 21 22 23 24 25 26 27 28 29 30 31 32 33 34 35 36 37 38 39 40 41 42 43 44 45 46 47 48 49 50
000
ASUS43 KLOT 292000
RWRIL

ILLINOIS REGIONAL WEATHER ROUNDUP
NATIONAL WEATHER SERVICE CHICAGO/ROMEOVILLE IL
300 PM CDT TUE JUL 29 2014

NOTE: "FAIR" INDICATES FEW OR NO CLOUDS BELOW 12,000 FEET WITH NO
SIGNIFICANT WEATHER AND/OR OBSTRUCTIONS TO VISIBILITY.

* THESE STATIONS ARE NOT UNDER NWS QUALITY CONTROL. THEY ALSO MAY NOT
  REPORT WEATHER SUCH AS PRECIPITATION OR FOG.

ILZ001-002-007-009-015-016-024-292100-
NORTHWEST ILLINOIS

CITY           SKY/WX    TMP DP  RH WIND       PRES   REMARKS
MOLINE           N/A     79  56  45 W14G20    30.08F HX  80
STERLING*      SUNNY     81  61  50 NW13G18   30.06F HX  81
$$

ILZ003-004-008-010-011-017-018-292100-
NORTH CENTRAL ILLINOIS

CITY           SKY/WX    TMP DP  RH WIND       PRES   REMARKS
ROCKFORD       PTSUNNY   79  58  48 W9        30.05S HX  80
$$

ILZ005-006-012>014-019>023-292100-
NORTHEAST ILLINOIS

CITY           SKY/WX    TMP DP  RH WIND       PRES   REMARKS
CHICAGO-OHARE  PTSUNNY   79  50  36 NW16      30.01S
CHICAGO-MIDWAY PTSUNNY   79  54  41 NW13G21   30.01S
AURORA         PTSUNNY   79  56  45 W13G20    30.03F HX  80
WAUKEGAN       MOSUNNY   73  58  59 E9        30.01S
DUPAGE AIRPORT CLOUDY    78  54  43 NW14      30.02S
WHEELING       MOSUNNY   81  51  35 NW14G22   30.02F HX  80
NORTHERLY ISL    N/A     67  59  75 E7          N/A
$$

LMZ740>746-292100-
SOUTHERN LAKE MICHIGAN

STATION/POSITION SKY/WX   TEMP    WIND        PRES    VSBY  WAVE
                          AIR SEA DIR/SP/G                  HT/PER
                          (F)     (DEG/KT/KT) (MB)    (MI)  (FT/S)
SOUTHERN BUOY              62 62  310/  2/  4 1016.6F         1
WAUKEGAN HARBOR            66     100/  9/ 10   N/A
HARRISON CRIB              66      90/  7/  8   N/A
BURNHAM HARBOR             68      90/  6/  7   N/A
CALUMET HARBOR             68      80/  7/  9 1015.5S
MICHIGAN CITY              67     340/  5/  6   N/A
MICHIGAN CITY 6N           65 69   50/  6/  8   N/A           1/ 3
ST. JOSEPH                 64 68  290/  6/  8   N/A           1/ 3
$$

ILZ025>027-034>036-040-047-049-050-058-095>099-292100-
WEST-CENTRAL ILLINOIS

CITY           SKY/WX    TMP DP  RH WIND       PRES   REMARKS
QUINCY         MOSUNNY   77  54  44 NW9       30.13F
$$

ILZ028>032-037-038-041>044-048-051>054-059>061-292100-
CENTRAL ILLINOIS

CITY           SKY/WX    TMP DP  RH WIND       PRES   REMARKS
DECATUR        PTSUNNY   77  55  46 W10G18    30.11S
PEORIA         MOSUNNY   79  55  43 W12       30.09F
SPRINGFIELD    SUNNY     78  55  44 W9        30.11F
TAYLORVILLE    NOT AVBL
$$

ILZ033-039-045-046-055>057-062-063-292100-
EAST-CENTRAL ILLINOIS

CITY           SKY/WX    TMP DP  RH WIND       PRES   REMARKS
CHAMPAIGN      MOSUNNY   75  58  55 W10       30.09F
MATTOON        MOSUNNY   76  57  51 W13       30.10S
$$

ILZ079-100>102-292100-
SOUTHWEST ILLINOIS

CITY           SKY/WX    TMP DP  RH WIND       PRES   REMARKS
BELLEVILLE     MOSUNNY   79  54  41 VRB7      30.11F
CAHOKIA*       PTSUNNY   79  53  40 N8        30.12S
$$

ILZ064>066-069>071-074>076-080>082-084>086-088>090-092>094-292100-
SOUTH-CENTRAL ILLINOIS

CITY           SKY/WX    TMP DP  RH WIND       PRES   REMARKS
CARBONDALE     MOSUNNY   77  51  40 W8        30.13S
MT. VERNON     SUNNY     77  54  44 W5        30.13S
$$

ILZ067-068-072-073-078-083-087-091-292100-
SOUTHEAST ILLINOIS

CITY           SKY/WX    TMP DP  RH WIND       PRES   REMARKS
$$

ABBREVIATIONS USED IN REMARKS
   TC - TEMPERATURE IN CELSIUS
  WCI - WIND CHILL INDEX
   HX - HEAT INDEX
  VSB - VISIBILITY
$$




USA.gov is the U.S. government's official web portal to all federal, state and local government web resources and services.